Weather History for LTCF - November, 2012

Change the Weather History Date:

Sunday, November 25, 2012

  Actual Average Record
Temperature  
Mean Temperature 34 °F -  
Max Temperature 43 °F 31 °F - ()
Min Temperature 24 °F 16 °F - ()
Degree Days  
Heating Degree Days 32    
Moisture  
Dew Point 29 °F    
Average Humidity 84    
Maximum Humidity 100    
Minimum Humidity 46    
Precipitation  
Precipitation 0.00 in 0.03 in - ()
Sea Level Pressure  
Sea Level Pressure 30.09 in    
Wind  
Wind Speed 1 mph ()    
Max Wind Speed 8 mph    
Max Gust Speed -    
Visibility 5.2 miles    
Events      
T = Trace of Precipitation, MM = Missing Value Source: Averaged Metar Reports

Daily Weather History Graph

Daily Weather History Graph

Search for Another Location

Airport or City:

Trip Planner

Search our weather history database for the weather conditions in past years. The results will help you decide how hot, cold, wet, or windy it might be!

Date:

Astronomy

Nov. 25, 2012 Rise Set
Actual Time 6:05 AM EET 3:43 PM EET
Civil Twilight 5:35 AM EET 4:13 PM EET
Nautical Twilight 5:02 AM EET 4:47 PM EET
Astronomical Twilight 4:29 AM EET 5:19 PM EET
Moon 1:48 PM EET (11/25) 2:58 AM EET (11/25)
Length of Visible Light 10h 37m
Length of Day
9h 37m
Waxing Gibbous, 91% of the Moon is Illuminated
Nov 25
Waxing Gibbous
Nov 28
Full
Dec 6
Last Quarter
Dec 13
New
Dec 20
First Quarter

Hourly Weather History & Observations

Time (EET) Temp. Windchill Dew Point Humidity Pressure Visibility Wind Dir Wind Speed Gust Speed Precip Events Conditions
12:50 AM 24.8 °F - 24.8 °F 100% 30.09 in 2.5 mi Calm Calm - N/A   Mostly Cloudy
1:50 AM 26.6 °F - 26.6 °F 100% 30.09 in 2.5 mi Calm Calm - N/A   Mostly Cloudy
2:00 AM 26 °F - 26 °F 98%  in 2 mi Calm Calm - -   Mist
2:50 AM 24.8 °F - 24.8 °F 100% 30.09 in 2.5 mi Calm Calm - N/A   Mostly Cloudy
3:50 AM 24.8 °F - 24.8 °F 100% 30.09 in 3.7 mi Calm Calm - N/A   Mostly Cloudy
4:50 AM 26.6 °F - 24.8 °F 93% 30.09 in 3.7 mi WNW 1.2 mph - N/A   Mostly Cloudy
5:50 AM 26.6 °F - 26.6 °F 100% 30.09 in 6.2 mi SE 1.2 mph - N/A   Mostly Cloudy
6:50 AM 26.6 °F - 26.6 °F 100% 30.12 in 6.2 mi Calm Calm - N/A   Mostly Cloudy
7:50 AM 28.4 °F - 28.4 °F 100% 30.12 in 6.2 mi Variable 1.2 mph - N/A   Mostly Cloudy
8:00 AM 29 °F - 29 °F 99%  in 6 mi WNW 1.2 mph - -   Partly Cloudy
8:20 AM 30.2 °F - 30.2 °F 100% 30.12 in 1.9 mi Variable 2.3 mph - N/A   Mostly Cloudy
8:50 AM 33.8 °F - 32.0 °F 93% 30.12 in 3.1 mi Calm Calm - N/A   Mostly Cloudy
9:50 AM 37.4 °F - 30.2 °F 75% 30.12 in 6.2 mi Calm Calm - N/A   Mostly Cloudy
10:50 AM 41.0 °F - 30.2 °F 65% 30.09 in 6.2 mi Calm Calm - N/A   Mostly Cloudy
11:50 AM 41.0 °F - 26.6 °F 57% 30.09 in 6.2 mi Calm Calm - N/A   Mostly Cloudy
12:50 PM 42.8 °F - 26.6 °F 53% 30.06 in 6.2 mi Calm Calm - N/A   Mostly Cloudy
1:50 PM 42.8 °F - 28.4 °F 57% 30.06 in 6.2 mi Calm Calm - N/A   Mostly Cloudy
2:00 PM 42 °F - 28 °F 46%  in 6 mi Calm Calm - -   Partly Cloudy
2:50 PM 41.0 °F 39.0 °F 28.4 °F 61% 30.06 in 6.2 mi NNE 3.5 mph - N/A   Mostly Cloudy
3:50 PM 39.2 °F 34.2 °F 30.2 °F 70% 30.06 in 6.2 mi NNE 6.9 mph - N/A   Scattered Clouds
4:50 PM 37.4 °F 31.4 °F 32.0 °F 81% 30.06 in 6.2 mi NNE 8.1 mph - N/A   Mostly Cloudy
5:50 PM 35.6 °F 30.7 °F 32.0 °F 87% 30.09 in 6.2 mi NNE 5.8 mph - N/A   Mostly Cloudy
6:50 PM 33.8 °F 27.7 °F 30.2 °F 87% 30.09 in 6.2 mi NNE 6.9 mph - N/A   Mostly Cloudy
7:50 PM 33.8 °F - 30.2 °F 87% 30.09 in 6.2 mi Calm Calm - N/A   Mostly Cloudy
8:00 PM 34 °F - 30 °F 81%  in 6 mi Calm Calm - -   Partly Cloudy
8:50 PM 33.8 °F - 30.2 °F 87% 30.09 in 6.2 mi Calm Calm - N/A   Mostly Cloudy
9:50 PM 33.8 °F - 30.2 °F 87% 30.09 in 6.2 mi Calm Calm - N/A   Mostly Cloudy
10:50 PM 33.8 °F - 30.2 °F 87% 30.09 in 6.2 mi ESE 2.3 mph - N/A   Mostly Cloudy
11:50 PM 32.0 °F - 30.2 °F 93% 30.09 in 6.2 mi East 2.3 mph - N/A   Mostly Cloudy